Madawaska, ME

12:14 AM EDT on September 30, 2016 (GMT -0400)
Northern Aroostook Regional

Weather History for KFVE - April, 2014

Change the Weather History Date:

Wednesday, April 9, 2014

  Actual Average Record
Temperature  
Mean Temperature 29 °F 34 °F  
Max Temperature 36 °F 41 °F 51 °F (2008)
Min Temperature 21 °F 26 °F 10 °F (1997)
Degree Days  
Heating Degree Days 36    
Month to date heating degree days 300  
Since 1 July heating degree days 8816  
Cooling Degree Days 0    
Month to date cooling degree days 0  
Year to date cooling degree days 0  
Moisture  
Dew Point 23 °F    
Average Humidity 74    
Maximum Humidity 100    
Minimum Humidity 30    
Precipitation  
Precipitation T in 0.10 in 0.40 in (2002)
Month to date precipitation 0.56 0.79  
Year to date precipitation 4.51 4.84  
Sea Level Pressure  
Sea Level Pressure 29.39 in    
Wind  
Wind Speed 18 mph (WNW)    
Max Wind Speed 25 mph    
Max Gust Speed 33 mph    
Visibility 9 miles    
Events Fog , Rain    
T = Trace of Precipitation, MM = Missing Value Source: NWS Daily Summary

Daily Weather History Graph

Daily Weather History Graph

Search for Another Location

Airport or City:

Trip Planner

Search our weather history database for the weather conditions in past years. The results will help you decide how hot, cold, wet, or windy it might be!

Date:

Astronomy

Apr. 09, 2014 Rise Set
Actual Time 5:56 AM EDT 7:13 PM EDT
Civil Twilight 5:24 AM EDT 7:45 PM EDT
Nautical Twilight 4:46 AM EDT 8:23 PM EDT
Astronomical Twilight 4:06 AM EDT 9:04 PM EDT
Moon 1:39 PM EDT (4/9) 3:04 AM EDT (4/9)
Length of Visible Light 14h 20m
Length of Day
13h 17m
Waxing Gibbous, 71% of the Moon is Illuminated
Apr 9
Waxing Gibbous
Apr 15
Full
Apr 22
Last Quarter
Apr 29
New
May 6
First Quarter

Hourly Weather History & Observations

Time (EDT) Temp. Windchill Dew Point Humidity Pressure Visibility Wind Dir Wind Speed Gust Speed Precip Events Conditions
12:04 AM 37.9 °F 33.5 °F 37.9 °F 100% 29.15 in 0.5 mi SSW 5.8 mph - N/A Fog Fog
12:10 AM 37.9 °F 32.7 °F 37.9 °F 100% 29.15 in 1.0 mi WSW 6.9 mph - N/A   Overcast
12:14 AM 37.9 °F 32.1 °F 37.9 °F 100% 29.15 in 1.8 mi West 8.1 mph - 0.00 in Rain Light Rain
12:16 AM 37.9 °F 32.1 °F 37.9 °F 100% 29.15 in 3.0 mi West 8.1 mph - 0.00 in Rain Light Rain
12:46 AM 37.0 °F 28.1 °F 36.0 °F 96% 29.18 in 10.0 mi WNW 15.0 mph 26.5 mph 0.00 in   Overcast
12:53 AM 36.0 °F 25.3 °F 35.1 °F 97% 29.20 in 10.0 mi WNW 19.6 mph 24.2 mph 0.00 in Rain Light Rain
1:16 AM 34.0 °F 23.0 °F 32.0 °F 92% 29.20 in 10.0 mi WNW 18.4 mph 27.6 mph 0.00 in   Overcast
1:35 AM 34.0 °F 23.4 °F 32.0 °F 92% 29.20 in 10.0 mi WNW 17.3 mph - 0.00 in   Overcast
1:53 AM 33.1 °F 22.2 °F 32.0 °F 96% 29.23 in 10.0 mi WNW 17.3 mph - 0.00 in Rain Light Rain
2:34 AM 33.1 °F 23.0 °F 32.0 °F 96% 29.23 in 10.0 mi West 15.0 mph - 0.00 in Rain Light Rain
2:53 AM 33.1 °F 23.0 °F 32.0 °F 96% 29.27 in 10.0 mi West 15.0 mph - 0.00 in Rain Light Rain
3:16 AM 33.1 °F 22.6 °F 30.9 °F 92% 29.25 in 10.0 mi WNW 16.1 mph - 0.00 in   Overcast
3:28 AM 33.1 °F 23.0 °F 30.9 °F 92% 29.27 in 10.0 mi West 15.0 mph - 0.00 in   Overcast
3:53 AM 32.0 °F 20.8 °F 30.9 °F 96% 29.29 in 10.0 mi WNW 17.3 mph - 0.00 in   Overcast
4:13 AM 33.1 °F 23.9 °F 30.9 °F 92% 29.28 in 10.0 mi WNW 12.7 mph - N/A   Mostly Cloudy
4:30 AM 33.1 °F 22.2 °F 30.9 °F 92% 29.28 in 10.0 mi WNW 17.3 mph - N/A   Overcast
4:53 AM 33.1 °F 21.9 °F 30.9 °F 92% 29.32 in 10.0 mi WNW 18.4 mph 23.0 mph N/A   Overcast
5:35 AM 33.1 °F 21.5 °F 30.9 °F 92% 29.32 in 10.0 mi WNW 19.6 mph 25.3 mph N/A   Overcast
5:53 AM 33.1 °F 21.9 °F 30.9 °F 92% 29.34 in 10.0 mi WNW 18.4 mph 27.6 mph N/A   Overcast
6:44 AM 32.0 °F 21.6 °F 28.9 °F 88% 29.34 in 10.0 mi NW 15.0 mph - N/A   Scattered Clouds
6:53 AM 32.0 °F 21.6 °F 28.9 °F 88% 29.37 in 10.0 mi NW 15.0 mph 25.3 mph N/A   Scattered Clouds
7:21 AM 32.0 °F 22.1 °F 28.9 °F 88% 29.36 in 10.0 mi WNW 13.8 mph 21.9 mph N/A   Mostly Cloudy
7:53 AM 32.0 °F 20.1 °F 27.0 °F 82% 29.39 in 10.0 mi NW 19.6 mph 27.6 mph N/A   Overcast
8:53 AM 30.9 °F 19.1 °F 25.0 °F 79% 29.42 in 10.0 mi WNW 18.4 mph 25.3 mph N/A   Overcast
9:53 AM 30.0 °F 18.7 °F 23.0 °F 75% 29.45 in 10.0 mi NW 16.1 mph 21.9 mph N/A   Mostly Cloudy
10:43 AM 33.1 °F 24.4 °F 21.9 °F 64% 29.44 in 10.0 mi NW 11.5 mph - N/A   Scattered Clouds
10:53 AM 33.1 °F 22.6 °F 23.0 °F 66% 29.46 in 10.0 mi West 16.1 mph - N/A   Clear
11:53 AM 35.1 °F 23.0 °F 19.0 °F 52% 29.47 in 10.0 mi WNW 24.2 mph 29.9 mph N/A   Partly Cloudy
12:53 PM 35.1 °F 24.8 °F 12.9 °F 40% 29.47 in 10.0 mi WNW 17.3 mph 29.9 mph N/A   Clear
1:53 PM 35.1 °F 23.3 °F 8.1 °F 33% 29.48 in 10.0 mi NNW 23.0 mph 33.4 mph N/A   Clear
2:53 PM 34.0 °F 22.7 °F 5.0 °F 30% 29.50 in 10.0 mi WNW 19.6 mph 26.5 mph N/A   Clear
3:53 PM 33.1 °F 22.2 °F 9.0 °F 37% 29.52 in 10.0 mi NNW 17.3 mph 27.6 mph N/A   Clear
4:53 PM 32.0 °F 19.5 °F 7.0 °F 35% 29.55 in 10.0 mi NNW 21.9 mph 29.9 mph N/A   Clear
5:53 PM 30.0 °F 16.6 °F 3.9 °F 33% 29.59 in 10.0 mi NW 23.0 mph 33.4 mph N/A   Clear
6:53 PM 28.0 °F 14.6 °F 5.0 °F 38% 29.62 in 10.0 mi NW 20.7 mph 28.8 mph N/A   Clear
7:53 PM 26.1 °F 15.0 °F 3.0 °F 37% 29.67 in 10.0 mi NW 12.7 mph 28.8 mph N/A   Clear
8:53 PM 24.1 °F 11.5 °F 6.1 °F 46% 29.71 in 10.0 mi NW 15.0 mph 29.9 mph N/A   Clear
9:53 PM 23.0 °F 8.3 °F 6.1 °F 48% 29.74 in 10.0 mi NW 19.6 mph 24.2 mph N/A   Clear
10:53 PM 21.9 °F 9.8 °F 6.1 °F 51% 29.76 in 10.0 mi NW 12.7 mph - N/A   Clear
11:53 PM 21.0 °F 8.6 °F 6.1 °F 53% 29.78 in 10.0 mi NW 12.7 mph 21.9 mph N/A   Clear